DELTA 1 DEB, 21364

Orbit data source: Space-Track

DELTA 1 DEB, 21364 is space debris in SSO originally from a launch on Thu, 12 Jun 1975 UTC launched from the Air Force Western Test Range (AFWTR). Debris objects in space refer to the collection of defunct objects orbiting the Earth. Examples of debris include non-operational satellites, rocket bodies, and fragments generated from explosions, collisions, or faulty payload assembly.

Loading next visibility...
Identifier
21364, 1975-052CJ
Orbit
SSO
Country
Flag of USUS
Related business
Manufacturer
Unknown
Mission
Spacecraft
Bus & Motor
Unknown
Mass
Unknown
Launch date (UTC)
1975-06-12 (51 years ago)
Launch vehicle
Unknown
Launch site
Air Force Western Test Range (AFWTR)
Object type
Payload
Rocket body
Debris
Shape & HBR
Unknown shape, 0.1 m
Radar Cross Section
Medium (>0.1 m² and <1 m²)

Expand to show TLE details & history
Last TLE update: 14 hours ago

TLE from 14 hours ago
0 DELTA 1 DEB
1 21364U 75052CJ  26168.80100868  .00000503  00000-0  16178-2 0  9992
2 21364  99.6763 120.4526 0250826 291.9693 141.6881 12.97365109657460
Epoch: 2026-06-17T19:13Z
TLE epoch observation values (Epoch: 2026-06-17T19:13:27.149Z)
Latitude
72.60568°
Longitude
-106.75728°
Altitude
1,437.246 km
Speed
7.078 km/s
True Right ascension
05h 50m 38s
True Declination
72° 30' 57"
Sunlit
Object was in daylight at epoch
Visualization orbit readout
Latitude
Unknown
Longitude
Unknown
Altitude
Unknown
Speed
Unknown
Apparent Right ascension
Unknown
Apparent Declination
Unknown
Sunlit
N/A
Visualization observer readout
Local Sidereal Time
20:16:17
Azimuth
Unknown
Elevation
Unknown
Doppler factor
Unknown
Orbital elements
Apogee altitude
1,461.63 km
Perigee altitude
1,077.97 km
Semi-major axis
7,647.937 km
Eccentricity
0.02508
Inclination
99.6763°
RAAN
120.4526°
Arg. of periapsis
291.9693°
True anomaly
143.42688°
Mean anomaly
141.6881°
Eccentric anomaly
142.56174°
Mean motion
3.24509 °/min
Orbital period
110.94 mins
BSTAR
0.0016178
Loading maneuver chart data...
Computing Atmospheric mass density...

Documentation

Showing up to 5 results
|